Theta_e
344 348 345 344 345 345 345 347 349 348 347 349 352 351 351 351 351 351 350 348 348 346 344 346 346 350 352 356 356 355 352 352 353
345 348 347 345 344 346 346 347 349 349 348 348 351 351 352 352 351 351 349 349 348 346 347 345 348 349 353 353 356 356 354 352 353
347 349 348 347 344 346 346 347 348 350 350 349 349 352 351 350 351 352 352 350 348 347 345 346 349 352 351 352 353 355 355 353 354
349 350 349 348 345 345 345 346 348 350 350 350 350 350 353 352 351 349 350 355 355 349 347 348 350 351 354 355 355 354 356 355 353
349 349 349 348 346 345 345 345 346 349 350 351 350 351 351 353 353 353 350 349 354 356 353 347 347 354 358 353 354 356 354 355 354
345 349 349 348 346 345 345 345 345 347 349 352 352 352 352 353 355 355 355 353 350 350 353 352 347 346 349 359 358 356 354 354 355
339 347 348 349 347 345 344 344 344 346 348 351 353 354 355 354 354 357 358 357 355 352 349 354 354 349 345 350 358 358 354 353 355
336 346 348 349 348 345 344 344 344 345 346 349 352 355 355 356 356 355 357 360 359 357 354 352 351 353 352 349 351 355 358 354 354
337 347 349 349 348 346 345 344 344 344 346 348 351 354 355 355 356 358 357 358 360 360 359 357 355 354 354 355 354 354 355 357 357
334 337 344 349 349 347 345 345 345 344 345 346 351 353 354 355 357 358 360 360 360 360 361 360 357 357 356 355 356 357 358 358 358
342 340 340 339 337 339 347 346 346 345 345 347 347 350 355 356 358 359 360 361 361 361 361 362 361 358 358 359 358 357 358 360 360
345 347 345 340 339 341 344 348 349 348 347 347 348 349 349 357 359 361 361 362 362 362 362 362 362 362 361 359 360 360 360 360 361
338 339 344 349 352 353 347 342 350 351 351 350 349 350 351 352 356 360 361 362 362 363 363 363 363 363 363 363 363 362 362 363 363
334 335 337 345 351 354 354 353 344 346 355 355 354 354 353 355 355 356 360 362 362 362 363 363 363 363 363 363 364 364 364 364 364
323 328 334 333 339 348 350 354 360 357 352 350 351 360 358 358 359 358 360 361 362 363 363 364 364 364 364 364 364 364 365 365 364
320 321 334 333 330 335 345 350 359 359 364 359 346 347 352 360 360 361 362 362 362 363 364 364 365 365 365 365 365 366 366 366 366
319 319 322 333 333 333 339 346 350 358 359 364 358 353 351 356 361 362 362 364 364 364 365 365 365 366 366 366 366 366 366 366 367
317 317 319 326 333 331 332 341 347 351 358 357 360 363 360 356 361 364 363 362 365 365 366 366 366 366 366 366 366 366 367 367 366
317 318 319 320 333 334 333 335 342 343 349 357 355 355 358 361 362 362 363 362 356 361 364 366 367 367 367 367 367 367 366 365 365
318 317 318 319 323 335 335 335 336 336 342 344 352 351 351 354 358 362 363 355 348 343 349 358 363 366 367 367 367 365 364 363 363
Wind_Speed
25 25 21 21 25 31 35 39 41 42 42 41 43 46 44 44 42 39 37 35 30 30 29 29 28 31 30 29 26 23 19 19 19
25 29 26 25 25 34 36 38 42 45 43 44 42 43 43 45 46 44 41 39 36 33 25 28 27 30 33 31 30 27 23 22 23
29 28 28 24 24 32 39 40 44 44 45 46 44 43 41 40 41 44 41 39 38 35 32 27 27 30 31 34 33 30 29 27 25
26 28 27 27 25 35 41 40 40 41 41 42 40 40 39 38 38 42 43 41 39 40 36 31 27 31 28 31 35 35 33 32 29
29 28 30 28 26 32 35 38 39 39 40 40 42 43 40 38 37 36 37 40 43 38 39 38 37 28 24 31 32 36 37 35 33
27 28 28 27 25 24 29 37 37 38 39 41 41 39 38 37 35 35 37 41 41 43 42 40 39 38 33 25 28 31 38 38 35
20 29 29 28 25 25 29 37 37 37 39 39 39 38 38 39 40 38 37 41 42 42 44 42 40 40 42 37 31 32 36 39 39
18 23 28 27 26 24 22 32 35 36 37 39 40 39 39 40 39 39 39 37 40 41 41 42 44 42 40 41 41 39 39 41 42
13 22 28 29 27 27 24 31 35 37 37 39 41 40 41 39 36 37 38 38 36 38 39 40 38 38 40 41 42 41 44 45 45
13 9 14 24 27 26 22 33 37 36 38 34 36 37 37 35 36 35 36 37 36 35 36 38 37 37 39 40 42 41 42 44 45
17 17 16 11 7 6 22 27 28 32 29 36 36 34 34 35 35 35 35 34 34 35 34 34 35 38 39 39 41 43 43 42 44
13 11 9 8 14 20 16 11 22 27 27 29 31 32 34 36 37 36 35 34 35 36 33 32 33 34 36 38 37 38 41 40 43
14 14 13 12 17 21 24 19 12 27 26 29 31 34 36 38 36 38 37 38 37 37 36 34 32 32 35 38 37 38 38 37 41
11 12 18 18 21 22 23 26 20 17 10 15 20 20 25 31 36 38 38 36 34 33 32 31 30 32 33 34 35 37 36 37 40
14 13 17 21 18 19 23 29 29 22 15 4 3 15 22 27 31 33 31 33 31 31 30 29 29 28 29 31 31 34 36 38 40
11 13 16 19 17 17 23 28 26 23 25 12 6 4 7 17 25 32 33 33 29 27 28 28 26 26 26 26 25 29 31 33 35
9 12 14 17 20 19 16 22 23 21 25 25 10 7 7 7 14 24 29 29 29 28 26 26 25 24 24 22 22 25 24 27 30
7 11 21 24 21 20 19 21 20 21 21 21 19 17 15 12 11 17 23 26 26 26 27 29 27 26 23 21 21 24 27 28 29
8 12 19 21 18 22 28 29 24 20 19 17 17 19 21 21 20 18 22 27 23 24 27 27 30 25 26 26 27 26 24 25 26
7 12 16 18 19 18 23 26 26 25 22 22 20 21 21 22 21 18 24 26 23 16 10 16 22 27 28 27 28 26 21 20 22
Wind_Direction
199 204 203 210 198 192 187 186 187 190 192 194 195 200 202 208 214 217 220 221 221 223 225 227 228 228 224 225 224 226 222 216 218
200 203 203 209 198 195 192 188 189 190 193 197 198 200 202 207 214 218 221 225 227 228 226 229 232 229 225 227 227 225 224 219 220
198 203 205 207 198 194 195 194 193 193 195 197 199 202 204 206 208 215 221 225 227 227 230 229 230 231 230 231 231 228 224 223 224
202 200 202 203 200 195 196 196 193 195 195 198 199 201 204 207 211 215 219 221 226 227 227 224 226 230 232 236 234 230 227 227 230
198 197 198 196 197 193 192 195 194 194 195 196 199 200 202 206 210 212 215 218 224 226 229 230 230 230 234 236 237 232 228 229 231
193 192 193 191 192 190 191 195 196 195 195 197 199 198 200 202 207 209 213 220 222 227 229 231 232 234 234 231 227 228 229 230 232
170 185 185 187 187 190 190 193 195 195 198 196 196 194 197 201 205 207 209 220 225 225 228 229 231 233 235 233 230 228 227 230 234
158 176 180 182 185 187 189 191 196 198 197 195 193 194 198 204 207 207 210 213 220 227 227 228 231 231 234 236 234 232 231 231 234
155 171 178 180 183 185 187 189 194 196 196 197 193 195 201 205 204 206 209 211 213 220 223 227 226 227 227 231 233 232 233 232 232
98 119 170 184 184 185 188 191 193 194 197 192 193 198 203 203 204 205 208 211 211 214 217 222 221 225 227 228 232 232 234 235 234
79 85 87 77 87 129 194 196 195 198 188 189 195 196 200 202 202 205 208 208 211 215 217 216 218 222 227 230 233 237 236 237 238
44 51 58 77 77 78 117 145 188 185 186 195 196 200 201 201 200 204 205 207 210 215 216 217 220 222 225 228 233 237 238 237 237
38 37 36 46 63 63 65 68 122 174 184 193 202 205 205 205 202 204 206 209 210 215 215 218 219 223 225 231 232 236 238 234 235
39 43 38 31 47 58 46 51 66 84 151 204 219 225 217 211 206 209 212 213 212 213 215 218 220 223 226 230 233 234 235 235 234
24 24 36 35 35 39 38 40 44 39 31 73 136 221 225 223 215 214 214 213 213 213 213 215 219 222 229 232 233 236 238 237 236
19 17 21 31 38 33 31 35 36 31 10 1 315 275 225 221 222 224 218 211 207 206 209 214 218 220 228 234 233 235 235 239 241
19 11 13 8 23 26 17 20 28 25 13 19 349 286 279 267 238 231 222 216 209 205 207 213 220 222 227 230 232 231 232 235 239
7 7 6 5 10 6 355 358 10 18 14 5 1 356 328 307 281 250 233 217 208 209 216 215 215 222 223 223 231 233 237 240 239
16 5 359 357 347 353 348 344 343 353 3 356 349 340 329 322 302 282 232 220 216 218 222 225 226 224 225 232 241 246 246 248 249
27 11 351 343 331 325 334 332 331 330 332 332 322 317 308 304 300 268 226 215 207 197 216 227 231 233 234 233 247 247 248 249 248